Regional Weather Roundup
Issued by NWS

Home | Current Version | Previous Version | Graphics & Text | Print | Product List | Glossary On
Versions: 1 2 3 4 5 6 7 8 9 10 11 12 13 14 15 16 17 18 19 20 21 22 23 24 25 26 27 28 29 30 31 32 33 34 35 36 37 38 39 40 41 42 43 44 45 46 47 48 49 50
000
ASUS43 KTOP 210408
RWRKS

WEATHER ROUNDUP FOR KANSAS
NATIONAL WEATHER SERVICE GOODLAND KS
1100 PM CDT MON OCT 20 2014

NOTE:  "FAIR" INDICATES FEW OR NO CLOUDS BELOW 12,000 FEET WITH NO
SIGNIFICANT WEATHER AND/OR OBSTRUCTIONS TO VISIBILITY.

KSZ001>006-013>018-027>032-041>047-210500-
NORTHWEST KANSAS

CITY           SKY/WX    TMP DP  RH WIND       PRES   REMARKS
GOODLAND       CLEAR     51  39  63 S10       30.12R
HAYS           CLEAR     52  41  66 SE5       30.09S
HILL CITY      CLEAR     56  42  59 CALM      30.09S
RUSSELL        CLEAR     52  44  74 S7        30.07S
$$

KSZ061>065-074>080-084>089-210500-
SOUTHWEST KANSAS

CITY           SKY/WX    TMP DP  RH WIND       PRES   REMARKS
DODGE CITY     CLEAR     54  44  69 SE9       30.11S
ELKHART          N/A     53  48  83 SE7         N/A
GARDEN CITY    CLEAR     52  41  66 SE8       30.11S
GREAT BEND     CLEAR     52  43  71 CALM      30.10S
LIBERAL        CLEAR     61  52  72 E7        30.13S
PRATT          CLEAR     59  43  55 E5        30.11S
$$

KSZ066>073-081>083-090>101-210500-
SOUTHEAST KANSAS

CITY           SKY/WX    TMP DP  RH WIND       PRES   REMARKS
CHANUTE        CLEAR     53  50  89 CALM      30.08R
COFFEYVILLE    CLEAR     56  54  93 NE5       30.07R
HUTCHINSON     CLEAR     51  44  77 CALM      30.09R
MEDICINE LODGE   N/A     59  48  67 CALM      30.08R
NEWTON         CLEAR     63  41  45 E6        30.10S
PARSONS        CLEAR     53  52  96 CALM      30.08R
WICHITA INTL   CLEAR     57  47  69 CALM      30.08R
WICHITA JABRA  CLEAR     59  45  59 E3        30.08R
WICHITA MCCONL CLEAR     59  46  62 E3        30.08S
WINFIELD       CLEAR     59  53  80 NE3       30.08R
$$

KSZ007>012-019>026-033>040-048>060-102>105-210500-
NORTHEAST KANSAS

CITY           SKY/WX    TMP DP  RH WIND       PRES   REMARKS
CONCORDIA      CLEAR     56  42  59 S7        30.07S
EMPORIA        CLEAR     56  46  69 CALM      30.08R
LAWRENCE       CLEAR     44  42  93 CALM      30.08R
MANHATTAN      CLEAR     46  43  89 CALM      30.08S
MARYSVILLE     CLEAR     50  41  71 CALM      30.08S
OLATHE IND     CLEAR     52  45  77 S6        30.08R
OLATHE EXE     CLEAR     53  47  79 CALM      30.07R
SALINA         CLEAR     54  47  77 CALM      30.08S
TOPEKA BILLARD CLEAR     48  47  96 CALM      30.09R FOG
TOPEKA FORBES  CLEAR     49  42  77 CALM      30.08R
$$


USA.gov is the U.S. government's official web portal to all federal, state and local government web resources and services.